STARLINK-5721, 55617

Orbit data source: Space-Track

STARLINK-5721, 55617 is a payload satellite owned by SpaceX/Seattle (US) in LEO that was launched on Sun, 12 Feb 2023 UTC via an FALCON 9 launch vehicle from the Air Force Eastern Test Range (AFETR). Payload-class satellites include a variety of spacecraft equipped with specific instruments for various scientific and technological missions. These include communications satellites like Starlink; space stations such as the ISS; scientific satellites like the Hubble; Earth observation satellites from companies like Planet Labs, Umbra, and HawkEye 360; GPS; miniature CubeSats for education and research; and military/defense satellites.

Loading next visibility...
Identifier
55617, 2023-020BA
Orbit
LEO
Country
Flag of USUS
Related business
Manufacturer
SpaceX/Seattle
Mission
Operational spacecraft
Bus & Motor
STARLINK, Unknown motor
Mass
305 kg wet, ~290 kg dry
Launch date (UTC)
2023-02-12 (3 years ago)
Launch vehicle
FALCON 9
Launch site
Air Force Eastern Test Range (AFETR)
Object type
Payload
Rocket body
Debris
Shape & HBR
Unknown shape, 10.1 m
Radar Cross Section
Large (>1 m²)

Expand to show TLE details & history
Last TLE update: 15 hours ago

TLE from 15 hours ago
0 STARLINK-5721
1 55617U 23020BA  26062.26421372  .00000510  00000-0  52800-4 0  9999
2 55617  43.0052  26.4997 0001219 269.6459  90.4244 15.02534411168106
Epoch: 2026-03-03T06:20Z
TLE epoch observation values (Epoch: 2026-03-03T06:20:28.065Z)
Latitude
0.00001°
Longitude
130.337°
Altitude
558.869 km
Speed
7.584 km/s
True Right ascension
01h 45m 59s
True Declination
0° 00' 00"
Sunlit
Object was in daylight at epoch
Visualization orbit readout
Latitude
Unknown
Longitude
Unknown
Altitude
Unknown
Speed
Unknown
Apparent Right ascension
Unknown
Apparent Declination
Unknown
Sunlit
N/A
Visualization observer readout
Local Sidereal Time
01:13:40
Azimuth
Unknown
Elevation
Unknown
Doppler factor
Unknown
Orbital elements
Apogee altitude
561.853 km
Perigee altitude
560.162 km
Semi-major axis
6,939.144 km
Eccentricity
0.00012
Inclination
43.0052°
RAAN
26.4997°
Arg. of periapsis
269.6459°
True anomaly
90.43837°
Mean anomaly
90.4244°
Eccentric anomaly
90.43138°
Mean motion
3.75478 °/min
Orbital period
95.88 mins
BSTAR
0.0000528
Loading maneuver chart data...
Computing Atmospheric mass density...
Loading historical data...
Loading historical data...
Loading historical data...
Loading historical data...
Loading historical data...
Loading historical data...
Loading historical data...

Documentation

Showing up to 5 results
|